User: anonymous   Login
Location: Unspecified
(0.0000°N, 0.0000°E)
Time: 09:31:09
(UTC+00:00)
Language:

ITUPSAT 1 - Orbit

View from above orbital plane
View from above orbital plane
View from above satellite
View from above satellite

Ground track
Ground track

The orbit data is extracted from the following two-line orbital elements,

1 35935U 09051E   19345.70729106  .00000062  00000-0  25438-4 0  9998
2 35935  98.6116 159.0629 0008109   4.9649 355.1626 14.55573802542245
Epoch (UTC): 11 December 2019 16:58:29
Eccentricity: 0.0008109
inclination: 98.6116°
perigee height: 702 km
apogee height: 713 km
right ascension of ascending node: 159.0629°
argument of perigee: 4.9649°
revolutions per day: 14.55573802
mean anomaly at epoch: 355.1626°
orbit number at epoch: 54224

The dashed part of the orbit path shows where the satellite is in the earth's shadow,  

DLR